Home   Weather   United Kingdom   Oldham   Past weeks
Flag for United Kingdom

Past Weather in Oldham, England, United Kingdom — Yesterday and Last 2 Weeks

Currently: 61 °F. Partly sunny. (Weather station: Manchester Airport, United Kingdom). See more current weather

Past Weather in Oldham — Graph

°F

Oldham Temperature Yesterday

Maximum temperature yesterday: 72 °F (at 1:50 pm)
Minimum temperature yesterday: 48 °F (at 3:50 am)
Average temperature yesterday: 62 °F

High & Low Weather Summary for the Past Weeks

 TemperatureHumidityPressure
High75 °F (May 12, 4:20 pm)100% (May 7, 3:50 am)30.36 "Hg (May 7, 3:50 am)
Low46 °F (May 6, 5:50 am)33% (May 19, 1:50 pm)29.50 "Hg (May 14, 4:50 am)
Average60 °F75%29.94 "Hg
* Reported May 5 12:20 pm — May 20 12:50 pm, Oldham. Weather by CustomWeather, © 2024

Note: Actual official high and low records may vary slightly from our data, if they occured in-between our weather recording intervals... More about our weather records

Oldham Weather History for the Previous 24 Hours

Scroll right to see more
 ConditionsComfort  
Time TempWeatherWind HumidityBarometerVisibility
12:50 pm
Mon, May 20
59 °FPartly sunny.10 mph77%30.01 "HgN/A
12:20 pm59 °FPartly sunny.3 mph77%30.01 "HgN/A
11:50 am61 °FMostly cloudy.3 mph72%30.01 "HgN/A
11:20 am59 °FOvercast.5 mph72%30.01 "HgN/A
10:50 am59 °FPartly sunny.6 mph72%30.01 "HgN/A
10:20 am57 °FPartly sunny.7 mph77%30.04 "HgN/A
9:50 am57 °FPartly sunny.7 mph77%30.04 "HgN/A
8:50 am57 °FPartly sunny.3 mph77%30.04 "HgN/A
8:20 am55 °FPassing clouds.5 mph77%30.04 "HgN/A
7:50 am55 °FClear.3 mph77%30.01 "HgN/A
7:20 am54 °FClear.3 mph82%30.01 "HgN/A
6:50 am52 °FClear.2 mph88%30.01 "HgN/A
6:20 am52 °FClear.3 mph88%30.01 "HgN/A
5:50 am50 °FClear.3 mph88%30.01 "HgN/A
5:20 am50 °FClear.1 mph88%30.01 "HgN/A
4:50 am50 °FPassing clouds.2 mph88%30.04 "HgN/A
4:20 am50 °FPassing clouds.6 mph88%30.04 "HgN/A
3:50 am52 °FPassing clouds.7 mph88%30.04 "HgN/A
3:20 am52 °FPassing clouds.7 mph88%30.04 "HgN/A
2:50 am52 °FPassing clouds.6 mph88%30.04 "HgN/A
2:20 am52 °FPassing clouds.5 mph88%30.04 "HgN/A
1:50 am54 °FPassing clouds.5 mph88%30.04 "HgN/A
1:20 am54 °FClear.5 mph88%30.04 "HgN/A
12:50 am54 °FClear.6 mph88%30.04 "HgN/A
12:20 am54 °FClear.9 mph88%30.04 "HgN/A
11:50 pm
Sun, May 19
55 °FClear.7 mph82%30.04 "HgN/A
11:20 pm57 °FClear.7 mph82%30.04 "HgN/A
10:50 pm59 °FClear.7 mph77%30.01 "HgN/A
10:20 pm59 °FClear.7 mph77%30.01 "HgN/A
9:50 pm61 °FClear.7 mph72%30.01 "HgN/A
9:20 pm64 °FClear.3 mph64%30.01 "HgN/A
8:50 pm64 °FClear.6 mph56%30.01 "HgN/A
8:20 pm66 °FClear.7 mph52%30.01 "HgN/A
7:50 pm68 °FClear.7 mph46%29.98 "HgN/A
7:20 pm68 °FClear.6 mph43%29.98 "HgN/A
6:50 pm70 °FClear.6 mph43%29.98 "HgN/A
6:20 pm72 °FClear.5 mph41%29.98 "HgN/A
5:50 pm72 °FClear.6 mph38%29.98 "HgN/A
5:20 pm72 °FClear.5 mph41%29.98 "HgN/A
4:50 pm72 °FClear.5 mph41%29.98 "HgN/A
4:20 pm72 °FClear.5 mph41%29.98 "HgN/A
3:50 pm72 °FClear.5 mph36%29.98 "HgN/A
3:20 pm72 °FClear.5 mph36%29.98 "HgN/A
Weather by CustomWeather, © 2024

See weather overview